Regional Weather Roundup
Issued by NWS Little Rock, AR

Home | Current Version | Previous Version | Text Only | Print | Product List | Glossary Off
Versions: 1 2 3 4 5 6 7 8 9 10 11 12 13 14 15 16 17 18 19 20 21 22 23 24 25 26 27 28 29 30 31 32 33 34 35 36 37 38 39 40 41 42 43 44 45

000
ASUS44 KLZK 241905
RWRLZK

WEATHER ROUNDUP FOR ARKANSAS
NATIONAL WEATHER SERVICE LITTLE ROCK AR
100 PM CST WED DEC 24 2014

NOTE: "FAIR" INDICATES FEW OR NO CLOUDS BELOW 12,000 FEET WITH NO
SIGNIFICANT WEATHER AND/OR OBSTRUCTIONS TO VISIBILITY.

ARZ001-003-010-029-242000-
NORTHWEST ARKANSAS

CITY           SKY/WX    TMP DP  RH WIND       PRES   REMARKS
FAYETTEVILLE   LGT RAIN  36  33  89 W9G22     29.87S
FORT SMITH     CLOUDY    42  31  64 W16       29.92S
HARRISON       LGT RAIN  36  34  92 W13G20    29.80S
BENTONVILLE    CLOUDY    37  30  75 NW12      29.86F
ROGERS         LGT RAIN  36  33  89 W8        29.85F
SILOAM SPGS    CLOUDY    37  28  70 NW16      29.88F
HIGHFILL       CLOUDY    37  33  85 NW13G20   29.86F
SPRINGDALE     CLOUDY    37  32  81 W13G18    29.88S
$$

ARZ004-005-016-242000-
NORTH CENTRAL ARKANSAS

CITY           SKY/WX    TMP DP  RH WIND       PRES   REMARKS
BATESVILLE     CLOUDY    43  34  70 W10       29.79F
FLIPPIN        PTSUNNY   41  30  65 NW14G23   29.79S
MTN HOME       CLOUDY    40  33  76 VRB7      29.77F
$$

ARZ040-041-242000-
WEST CENTRAL ARKANSAS

CITY           SKY/WX    TMP DP  RH WIND       PRES   REMARKS
MENA           CLOUDY    41  34  75 W13       29.91R
MOUNT IDA      CLOUDY    43  35  73 NW9       29.85F
$$

ARZ009-017-025-026-028-242000-
NORTHEAST ARKANSAS

CITY           SKY/WX    TMP DP  RH WIND       PRES   REMARKS
CORNING          N/A     45  36  70 W10       29.74F
JONESBORO      CLOUDY    44  35  70 W13       29.76F
NEWPORT        CLOUDY    45  36  70 W14       29.79F
WALNUT RIDGE   CLOUDY    45  32  61 W12       29.74F
BLYTHEVILLE    CLOUDY    45  38  76 W10       29.75S
$$

ARZ022-023-033-042-044-242000-
CENTRAL ARKANSAS

CITY           SKY/WX    TMP DP  RH WIND       PRES   REMARKS
LITTLE ROCK    CLOUDY    46  33  60 W15       29.84F
N LITTLE ROCK  CLOUDY    44  37  78 W8        29.84F
JACKSONVILLE   CLOUDY    45  36  69 W14       29.82F
SEARCY         CLOUDY    44  36  73 W7        29.82F
HOT SPRINGS    CLOUDY    44  34  67 W9G20     29.87F
RUSSELLVILLE   CLOUDY    44  34  67 W14G23    29.84F
CLINTON        CLOUDY    41  34  75 W5        29.83F
$$

ARZ036-242000-
EAST ARKANSAS

CITY           SKY/WX    TMP DP  RH WIND       PRES   REMARKS
WEST MEMPHIS   CLOUDY    46  36  68 W8        29.77F
$$

ARZ050-053-066-070-073-242000-
SOUTHWEST ARKANSAS

CITY           SKY/WX    TMP DP  RH WIND       PRES   REMARKS
ARKADELPHIA    CLOUDY    46  37  70 NW13      29.90F
CAMDEN         CLOUDY    48  34  57 MISG      29.90F
TEXARKANA      CLOUDY    45  33  63 NW18G24   29.94S
EL DORADO      CLOUDY    47  35  63 W8        29.91S
DE QUEEN       CLOUDY    44  33  65 NW14G23   29.94S
$$

ARZ056-057-069-242000-
SOUTHEAST ARKANSAS

CITY           SKY/WX    TMP DP  RH WIND       PRES   REMARKS
PINE BLUFF     CLOUDY    45  34  65 W15       29.86F
STUTTGART      CLOUDY    46  34  61 W15G21    29.84S
MONTICELLO     LGT RAIN  46  33  60 NW8       29.86F

$$




USA.gov is the U.S. government's official web portal to all federal, state and local government web resources and services.